Regional Weather Roundup
Issued by NWS

Home | Current Version | Previous Version | Graphics & Text | Print | Product List | Glossary On
Versions: 1 2 3 4 5 6 7 8 9 10 11 12 13 14 15 16 17 18 19 20 21 22 23 24 25 26 27 28 29 30 31 32 33 34 35 36 37 38 39 40 41 42 43 44 45 46 47 48 49 50
000
ASUS43 KDMX 011007
RWRIA

WEATHER ROUNDUP FOR IOWA
NATIONAL WEATHER SERVICE DES MOINES IA
400 AM CST SUN FEB 01 2015

NOTE: "FAIR" INDICATES FEW OR NO CLOUDS BELOW 12,000 FEET WITH NO
SIGNIFICANT WEATHER AND/OR OBSTRUCTIONS TO VISIBILITY.

* - THESE STATIONS ARE NOT NWS STATIONS...THUS NOT UNDER NWS
QUALITY CONTROL.  THEY ALSO DO NOT REPORT WEATHER SUCH
AS PRECIPITATION OR FOG.

IAZ001>003-012>014-020>022-031>034-043>046-011100-
   NORTHWEST IOWA

CITY           SKY/WX    TMP DP  RH WIND       PRES   REMARKS
CARROLL *      LGT SNOW  28  28 100 NE18      29.82F VSB 1   WCI  16
CHEROKEE *     LGT SNOW  23  23 100 NE23G33   29.92S WCI   7
DENISON *      LGT SNOW  28  28 100 NE14G24   29.82F WCI  17
LE MARS *      MIX PCPN  23  21  93 NE25G33   29.95F VSB 1   WCI   7
ORANGE CITY *  LGT SNOW  23  19  86 NE17G25   29.96R WCI   9
SHELDON *      LGT SNOW  19  18  93 N28G35    29.96S WCI   1
SIOUX CITY     LGT SNOW  25  21  85 NE23G31   29.92S FOG     WCI  10
SPENCER        LGT SNOW  21  17  84 NE26G37   29.97S VSB 1   WCI   4
STORM LAKE *   MIX PCPN  23  21  93 NE24G36   29.89S VSB 1   WCI   7
$$

IAZ055>058-069>071-079>083-090>094-011100-
   SOUTHWEST IOWA

CITY           SKY/WX    TMP DP  RH WIND       PRES   REMARKS
ATLANTIC *     LGT SNOW  32  32 100 NE8       29.78F WCI  25
AUDUBON *      LGT SNOW  30  28  93 NE3       29.81F
CLARINDA *     LGT SNOW  32  32 100 N6        29.78F WCI  26
COUNCIL BLFS * LGT SNOW  32  32 100 NE8       29.78F WCI  25
CRESTON *      LGT SNOW  32  32 100 NE10      29.77F WCI  24
HARLAN  *      LGT SNOW  32  32 100 NE7       29.84S WCI  26
LAMONI         LGT SNOW  32  31  96 E3        29.76F FOG
RED OAK *      LGT SNOW  32  32 100 NE7       29.78F WCI  26
SHENANDOAH *   LGT SNOW  32  32 100 NE7       29.78F WCI  26
$$

IAZ047>049-059>061-072>074-084-011100-
   CENTRAL IOWA

CITY           SKY/WX    TMP DP  RH WIND       PRES   REMARKS
AMES           LGT SNOW  32  31  96 E9        29.84F FOG     WCI  24
ANKENY *       LGT SNOW  32  32 100 E10       29.82F WCI  24
CHARITON *     LGT SNOW  32  32 100 E7        29.80F WCI  26
DES MOINES     LGT SNOW  33  31  92 E7        29.82F FOG     WCI  27
GRINNELL*      LGT SNOW  32  32 100 E9        29.84F WCI  24
KNOXVILLE *    LGT SNOW  32  32 100 E5        29.80F WCI  27
MARSHALLTOWN   LGT SNOW  31  30  96 E20       29.84F VSB 1   WCI  19
PELLA *        RAIN      32  32 100 E3        29.84F
PERRY *        LGT SNOW  32  32 100 E7        29.82F WCI  26
$$

IAZ004>006-015-016-023>025-035-036-011100-
   NORTH CENTRAL IOWA

CITY           SKY/WX    TMP DP  RH WIND       PRES   REMARKS
ALGONA *       MIX PCPN  23  21  93 NE25G35   29.95S VSB 3/4 WCI   7
CLARION *      SNOW      27  27 100 NE26G32   29.89F VSB 1/2 WCI  11
ESTHERVILLE    LGT SNOW  19  16  88 NE25G37   29.98S VSB 1   WCI   1
FORT DODGE *   CLOUDY    27  21  80 CALM      29.88F
MASON CITY     LGT SNOW  24  22  91 NE21      29.96F VSB 3/4 WCI   9
FOREST CITY *  LGT SNOW  25  21  86 NE22G32   29.95F WCI  10
IOWA FALLS *   LGT SNOW  28  27  93 NE13      29.88F WCI  18
$$

IAZ007>011-017>019-026>030-037>042-050>054-066-011100-
   NORTHEAST IOWA

CITY           SKY/WX    TMP DP  RH WIND       PRES   REMARKS
CEDAR RAPIDS   LGT SNOW  32  32 100 E16       29.88F VSB 3/4 WCI  21
CHARLES CITY * LGT SNOW  25  25 100 NE21G28   29.94F WCI  10
CLINTON *      CLOUDY    32  30  93 E13       29.96F WCI  22
DECORAH *      LGT SNOW  25  23  93 E18       29.99F WCI  11
DUBUQUE        LGT SNOW  27  25  92 NE20G30   29.95F VSB 3/4 WCI  13
MONTICELLO *   SNOW      30  30 100 E17       29.92F VSB 1/2 WCI  18
OELWEIN *      LGT SNOW  27  25  93 E20G29    29.93S VSB 1   WCI  13
WATERLOO       LGT SNOW  27  26  96 E21       29.91F VSB 3/4 WCI  13
$$

IAZ064-065-067-068-078-011100-
   EAST CENTRAL IOWA

CITY           SKY/WX    TMP DP  RH WIND       PRES   REMARKS
DAVENPORT      LGT SNOW  32  30  92 E12       29.92F VSB 3/4 WCI  23
IOWA CITY      LGT SNOW  32  32 100 E9        29.90F VSB 3/4 WCI  24
MT. PLEASANT * LGT SNOW  32  32 100 SE9       29.86F WCI  24
MUSCATINE *    LGT SNOW  34  32  93 E6        29.90F WCI  29
QUAD CITIES    LGT SNOW  32  31  96 E9        29.91F VSB 3/4 WCI  24
$$

IAZ062-063-075>077-085>089-095>099-011100-
   SOUTHEAST IOWA

CITY           SKY/WX    TMP DP  RH WIND       PRES   REMARKS
BURLINGTON     LGT SNOW  33  32  96 SE7       29.86F VSB 3/4 WCI  27
FAIRFIELD *    CLOUDY    32  32 100 SE13      29.84F FOG     WCI  22
FORT MADISON * LGT SNOW  32  32 100 SE8       29.86F VSB 1   WCI  25
KEOKUK *       LGT SNOW  34  32  93 SE8       29.85F VSB 3/4 WCI  27
OSKALOOSA *    LGT SNOW  32  32 100 SE7       29.83F WCI  26
CENTERVILLE *  FLURRIES  32  32 100 E5        29.80F WCI  27
OTTUMWA        LGT SNOW  32  32 100 SE10      29.83F FOG     WCI  24
WASHINGTON *   LGT SNOW  34  34 100 SE12      29.86F VSB 1   WCI  25
$$

ABBREVIATIONS USED IN REMARKS
   TC - TEMPERATURES IN CELSIUS
  WCI - WIND CHILL INDEX
   HX - HEAT INDEX
  VSB - VISIBILITY
$$




USA.gov is the U.S. government's official web portal to all federal, state and local government web resources and services.